Location: Newark
(15.4608°S, 41.1635°W)
Time: 19:22:02
(UTC+00:00)

Vanguard 1 - Visible Passes

Search period start: 04 March 2021 00:00
Search period end: 14 March 2021 00:00
Orbit: 649 x 3834 km, 34.2° (Epoch: 03 March)

Date Brightness Start Highest point End Pass type
(mag) Time Alt. Az. Time Alt. Az. Time Alt. Az.
04 Mar 13.2 01:50:36 10° WSW 01:57:14 24° W 01:57:14 24° W visible
04 Mar 13.0 21:13:03 10° WSW 21:36:00 52° SSE 21:51:34 12° E visible
04 Mar 11.7 23:42:20 10° WSW 00:03:24 88° NW 00:04:16 83° NE visible
05 Mar 13.5 02:13:46 10° W 02:16:58 15° W 02:16:58 15° W visible
05 Mar 12.7 21:35:07 10° SW 21:58:24 58° SSE 22:11:19 19° E visible
06 Mar 11.9 00:04:19 10° WSW 00:24:02 71° NW 00:24:02 71° NW visible
06 Mar 12.5 21:57:02 10° SW 22:20:31 68° SSE 22:31:09 28° E visible
07 Mar 12.3 00:26:30 10° WSW 00:43:52 53° WNW 00:43:52 53° WNW visible
07 Mar 12.3 22:18:51 10° WSW 22:42:22 79° SSE 22:51:01 36° ENE visible
08 Mar 12.7 00:49:06 10° WSW 01:03:45 39° WNW 01:03:45 39° WNW visible
08 Mar 12.2 22:40:41 10° WSW 23:03:54 87° NW 23:10:58 44° NE visible
09 Mar 13.1 01:12:18 10° WSW 01:23:42 27° WNW 01:23:42 27° WNW visible
09 Mar 12.2 23:02:37 10° WSW 23:25:08 71° NW 23:30:59 48° NNE visible
10 Mar 13.4 01:36:34 10° W 01:43:43 18° WNW 01:43:43 18° WNW visible
10 Mar 12.9 20:56:05 10° SW 21:20:05 70° SSE 21:37:55 10° ENE visible
10 Mar 12.3 23:24:48 10° WSW 23:46:08 57° NW 23:51:03 45° N visible
11 Mar 13.8 02:03:30 10° WNW 02:03:47 10° WNW 02:03:47 10° WNW visible
11 Mar 12.8 21:17:46 10° WSW 21:41:59 81° SSE 21:58:26 13° ENE visible
11 Mar 12.6 23:47:22 10° WSW 00:06:57 43° NW 00:11:11 38° NNW visible
12 Mar 12.7 21:39:29 10° WSW 22:03:36 85° NW 22:18:37 16° NE visible
13 Mar 12.9 00:10:33 10° WSW 00:27:39 32° NW 00:31:22 29° NNW visible
13 Mar 12.8 22:01:19 10° WSW 22:24:58 71° NW 22:38:53 18° NE visible
